[[{"header":{"parameterUnit":"m.s-1","parameterCategory":1,"la1":30.2991,"la2":30.254,"lo1":-89.0895,"lo2":-89.0444,"dy":0.0017,"dx":0.0017,"nx":28,"ny":28,"refTime":"2025-07-20T03:00:00:Z","depth":0,"parameterNumber":2,"parameterNumberName":"U-component_of_WINDS"},"data":[0,0,0,0,0,0,0,0,0,0,0,0,0,0,0,0,0,0,0,0,0,0,0,0,0,0,0,0,0,0,0,0,0,0,0,0,0,0,0,0,0,0,0,0,0,0,0,0,0,0,0,0,0,0,0,0,0,0,0.6031,0.6033,0,0.6169,0.617,0.6172,0.6232,0.6232,0.6232,0.6231,0.6374,0.6378,0.6382,0,0,0,0,0,0,0,0,0,0,0,0,0,0.5822,0.5826,0.6031,0.6033,0.6035,0.6168,0.617,0.6172,0.6232,0.6232,0.6232,0.6231,0.6373,0.6378,0.6382,0,0,0,0,0,0,0,0,0,0,0,0,0,0.5931,0.5827,0.6031,0.6081,0.6086,0.6168,0.617,0.6173,0.6232,0.6232,0.6231,0.6231,0.6371,0.6377,0.6383,0.6426,0,0,0.6401,0.6404,0,0,0,0,0,0,0,0,0.5925,0.5939,0.6072,0.6077,0.6084,0.6183,0.6149,0.6258,0.6232,0.6177,0.6231,0.6231,0.6311,0.6322,0.6348,0.6433,0.6439,0.6402,0.6406,0.6408,0.641,0,0,0,0,0,0,0,0.5918,0.5934,0.6086,0.6073,0.6081,0.6096,0.6112,0.617,0.6244,0.6182,0.6186,0.6202,0.6314,0.6342,0.6352,0.6441,0.6402,0.6407,0.6411,0.6413,0.6568,0.6568,0,0,0,0,0,0,0.5902,0.5927,0.6081,0.609,0.6002,0.61,0.6117,0.6151,0.6244,0.6257,0.6202,0.6204,0.6332,0.6345,0.6357,0.6414,0.6408,0.6414,0.6417,0.6567,0.6568,0.6568,0,0,0,0,0,0,0.5897,0.5915,0.6076,0.601,0.6031,0.6104,0.6142,0.6154,0.6183,0.6259,0.6272,0.6217,0.6333,0.6349,0.6408,0.642,0.6416,0.6422,0.6567,0.6567,0.6568,0.6527,0,0,0,0,0,0,0.5891,0.5913,0.593,0.601,0.6035,0.6124,0.6143,0.6157,0.6193,0.6197,0.6277,0.6289,0.6334,0.6399,0.6414,0.6428,0.6427,0.6566,0.6567,0.6568,0.6528,0.6526,0.6525,0,0,0,0,0,0.5883,0.5913,0.593,0.5948,0.6057,0.6124,0.6139,0.6189,0.6193,0.6211,0.626,0.6287,0.6416,0.6405,0.6422,0.6438,0.6566,0.6567,0.6568,0.6528,0.6527,0.6525,0,0,0,0,0,0,0.5834,0.5925,0.5944,0.6001,0.6055,0.6134,0.6159,0.6185,0.6239,0.6241,0.63,0.6318,0.6372,0.6411,0.6397,0.6484,0.6493,0.6498,0.6457,0.6456,0.6455,0.6444,0.6432,0,0,0,0,0,0.5829,0.5876,0.5953,0.5996,0.6021,0.6085,0.6116,0.615,0.6208,0.6231,0.6284,0.634,0.6393,0.6427,0.648,0.6534,0.6552,0.6553,0.6551,0.655,0.6554,0.6585,0.6586,0.6572,0.6572,0.6572,0,0,0.5821,0.5876,0.5902,0.5987,0.6032,0.608,0.6104,0.6153,0.6189,0.6239,0.6298,0.6338,0.6405,0.6461,0.6489,0.6495,0.6561,0.6552,0.655,0.6554,0.6586,0.6587,0.6589,0.6573,0.6573,0.6573,0,0,0.583,0.5876,0.5917,0.5961,0.6029,0.6071,0.6081,0.6157,0.6185,0.6245,0.6284,0.6327,0.6417,0.6463,0.6498,0.6523,0.655,0.6538,0.6532,0.6561,0.6562,0.6564,0.6573,0.6575,0.6541,0.6541,0.6541,0,0.5811,0.5883,0.5935,0.5981,0.6018,0.6064,0.6106,0.6146,0.6228,0.6252,0.6258,0.6372,0.642,0.6487,0.6493,0.652,0.6533,0.653,0.6558,0.656,0.6562,0.6571,0.6574,0.6539,0.654,0.654,0.654,0,0.5857,0.5906,0.5931,0.6008,0.6047,0.6091,0.6149,0.6183,0.6212,0.6254,0.6314,0.6373,0.6438,0.6457,0.6487,0.6529,0.6531,0.6546,0.6556,0.656,0.657,0.6574,0.6537,0.6538,0.6538,0.6539,0,0,0.5839,0.5943,0.5952,0.5987,0.6065,0.6104,0.615,0.6213,0.6241,0.6295,0.6336,0.641,0.6425,0.6464,0.65,0.6526,0.6542,0.6539,0.6541,0.6537,0.6592,0.6579,0.6583,0.656,0.6561,0.6561,0.6586,0,0.5859,0.5943,0.599,0.6055,0.6101,0.6145,0.6185,0.6237,0.6277,0.6322,0.6367,0.6418,0.6434,0.6458,0.6486,0.6534,0.6553,0.6533,0.6598,0.66,0.6581,0.6588,0.6576,0.6596,0.659,0.6591,0.6591,0,0.5894,0.5947,0.6015,0.6087,0.6109,0.6144,0.6205,0.6248,0.6308,0.6335,0.6378,0.6413,0.6464,0.6469,0.6539,0.6524,0.6554,0.6581,0.6583,0.6592,0.6596,0.6597,0.6604,0.6607,0.6598,0.6597,0.6597,0,0.5874,0.5963,0.6015,0.6044,0.6129,0.6153,0.619,0.6249,0.6284,0.6338,0.6361,0.642,0.6453,0.6498,0.6548,0.6547,0.6613,0.6623,0.6637,0.6636,0.665,0.6649,0.6662,0.6668,0.6668,0.6668,0.6668,0,0.5891,0.5932,0.6007,0.604,0.6086,0.614,0.6185,0.6225,0.6277,0.6319,0.636,0.6398,0.6462,0.6507,0.6547,0.6599,0.6614,0.6637,0.6647,0.6634,0.6631,0.6654,0.6654,0.6669,0.6669,0.6668,0.6668,0,0.5878,0.593,0.599,0.6066,0.6085,0.6116,0.6181,0.6214,0.6256,0.6307,0.6323,0.6388,0.6444,0.6498,0.6573,0.6599,0.6652,0.6665,0.6631,0.6637,0.6648,0.6647,0.6678,0.6685,0.6685,0.6685,0.6685,0,0.5885,0.5917,0.5996,0.6026,0.6062,0.611,0.6146,0.6199,0.6235,0.6305,0.633,0.6388,0.6438,0.6526,0.658,0.6638,0.6653,0.666,0.6662,0.6647,0.6653,0.6651,0.6655,0.6659,0.6658,0.6658,0.6658,0,0.5894,0.5918,0.5967,0.6025,0.6066,0.6115,0.6165,0.6188,0.6251,0.6289,0.6346,0.6384,0.6461,0.6519,0.6582,0.6621,0.665,0.6657,0.6663,0.665,0.6629,0.6641,0.6628,0.6656,0.6656,0.6656,0.6657,0.6657,0.5892,0.5922,0.5982,0.6035,0.6078,0.6124,0.6159,0.6204,0.6253,0.6318,0.6347,0.6405,0.6464,0.6552,0.659,0.6636,0.6643,0.6653,0.6655,0.6657,0.6654,0.6621,0.6648,0.6648,0.6648,0.6648,0.6648,0,0.5902,0.5943,0.5991,0.606,0.6102,0.6124,0.6181,0.6215,0.6265,0.6317,0.6365,0.643,0.6487,0.6545,0.6604,0.663,0.6645,0.6644,0.6643,0.6651,0.6644,0.6633,0.6631,0.6631,0.6631,0.6631,0.6631,0.6631,0.5913,0.5965,0.5996,0.6071,0.6111,0.6168,0.6198,0.624,0.6282,0.6353,0.64,0.6437,0.6492,0.6555,0.6608,0.6624,0.6644,0.6639,0.6658,0.6651,0.6652,0.6653,0.6642,0.6643,0.6643,0.6662,0.6662,0.6662]},{"header":{"parameterUnit":"m.s-1","parameterCategory":1,"la1":30.2991,"la2":30.254,"lo1":-89.0895,"lo2":-89.0444,"dy":0.0017,"dx":0.0017,"nx":28,"ny":28,"refTime":"2025-07-20T03:00:00:Z","depth":0,"parameterNumber":3,"parameterNumberName":"V-component_of_WINDS"},"data":[0,0,0,0,0,0,0,0,0,0,0,0,0,0,0,0,0,0,0,0,0,0,0,0,0,0,0,0,0,0,0,0,0,0,0,0,0,0,0,0,0,0,0,0,0,0,0,0,0,0,0,0,0,0,0,0,0,0,4.6914,4.6913,0,4.6852,4.6852,4.6851,4.683,4.683,4.6831,4.6831,4.676,4.6758,4.6756,0,0,0,0,0,0,0,0,0,0,0,0,0,4.7006,4.7005,4.6914,4.6913,4.6912,4.6852,4.6852,4.6851,4.683,4.683,4.6831,4.6831,4.676,4.6758,4.6755,0,0,0,0,0,0,0,0,0,0,0,0,0,4.6957,4.7004,4.6914,4.6895,4.6893,4.6853,4.6852,4.6851,4.683,4.683,4.6831,4.6831,4.6761,4.6758,4.6755,4.6727,0,0,4.6745,4.6744,0,0,0,0,0,0,0,0,4.696,4.6954,4.6899,4.6896,4.6894,4.685,4.6858,4.6809,4.683,4.6854,4.6831,4.6831,4.6789,4.6783,4.6771,4.6723,4.672,4.6745,4.6743,4.6742,4.6741,0,0,0,0,0,0,0,4.6964,4.6957,4.6889,4.6898,4.6895,4.6887,4.6881,4.6849,4.6819,4.6852,4.685,4.6843,4.6787,4.6774,4.6769,4.6719,4.6745,4.6742,4.674,4.6739,4.6646,4.6645,0,0,0,0,0,0,4.6971,4.696,4.6891,4.6887,4.6929,4.6885,4.6878,4.6863,4.682,4.6814,4.6843,4.6843,4.6779,4.6773,4.6766,4.673,4.6742,4.6739,4.6737,4.6646,4.6646,4.6645,0,0,0,0,0,0,4.6973,4.6965,4.6894,4.6923,4.6913,4.6883,4.6867,4.6862,4.6848,4.6813,4.6807,4.6835,4.6779,4.6771,4.6737,4.6728,4.6737,4.6734,4.6647,4.6646,4.6645,4.6659,0,0,0,0,0,0,4.6976,4.6966,4.6957,4.6923,4.6912,4.6868,4.6866,4.686,4.6844,4.6842,4.6804,4.6798,4.6779,4.6742,4.6734,4.6723,4.6732,4.6647,4.6646,4.6645,4.6659,4.6658,4.6658,0,0,0,0,0,4.698,4.6961,4.6957,4.6949,4.69,4.6868,4.6861,4.6842,4.6843,4.6832,4.681,4.6799,4.673,4.6739,4.673,4.6718,4.6648,4.6647,4.6646,4.6659,4.6659,4.6658,0,0,0,0,0,0,4.6992,4.6957,4.6951,4.6922,4.6899,4.6864,4.685,4.6841,4.6815,4.6815,4.6789,4.678,4.6749,4.673,4.674,4.6688,4.6688,4.6685,4.6702,4.6701,4.6701,4.6705,4.6729,0,0,0,0,0,4.6992,4.6971,4.694,4.6917,4.6906,4.6881,4.6866,4.6853,4.6826,4.6815,4.679,4.6763,4.6735,4.6717,4.6689,4.6656,4.6647,4.6643,4.6643,4.6643,4.664,4.6621,4.6619,4.6641,4.6641,4.6641,0,0,4.699,4.6969,4.6956,4.692,4.69,4.6877,4.6872,4.6847,4.6829,4.6811,4.6779,4.6759,4.6727,4.6694,4.6678,4.6677,4.6632,4.6641,4.6641,4.6638,4.6619,4.6617,4.6615,4.664,4.664,4.664,0,0,4.6976,4.6958,4.6937,4.6918,4.689,4.6873,4.6868,4.6835,4.6823,4.6791,4.6776,4.6753,4.6705,4.6683,4.6665,4.6643,4.6632,4.6635,4.6632,4.6614,4.6612,4.661,4.6602,4.6599,4.6632,4.6632,4.6632,0,4.6977,4.6945,4.6927,4.6904,4.6888,4.6873,4.685,4.6832,4.6794,4.6782,4.6782,4.6723,4.67,4.6661,4.6656,4.6642,4.6634,4.6639,4.6614,4.6612,4.661,4.6602,4.6599,4.6633,4.6633,4.6633,4.6633,0,4.6947,4.6924,4.6911,4.6878,4.686,4.6837,4.6815,4.6798,4.6787,4.6769,4.6736,4.6708,4.6675,4.6664,4.6652,4.6624,4.6624,4.662,4.6619,4.6609,4.6601,4.6597,4.6634,4.6633,4.6633,4.6633,0,0,4.6938,4.6898,4.6893,4.6878,4.6846,4.6826,4.6802,4.6773,4.6758,4.6733,4.6711,4.6672,4.6668,4.6648,4.6632,4.6616,4.66,4.6613,4.6612,4.6612,4.6567,4.6571,4.6567,4.6593,4.6593,4.6592,4.657,0,4.692,4.6879,4.6863,4.6829,4.6807,4.6793,4.6772,4.6748,4.6731,4.6708,4.6688,4.6661,4.6657,4.6645,4.6629,4.6606,4.6591,4.6607,4.6571,4.657,4.6579,4.6563,4.6567,4.6547,4.6566,4.6566,4.6565,0,4.6892,4.687,4.6835,4.6806,4.6796,4.6778,4.6749,4.6728,4.67,4.6689,4.6667,4.6653,4.6625,4.6628,4.6588,4.6599,4.6583,4.6569,4.6568,4.6563,4.6567,4.6558,4.654,4.6537,4.656,4.656,4.6561,0,4.6889,4.685,4.6824,4.6812,4.6777,4.6764,4.6749,4.6722,4.6705,4.6679,4.6668,4.6638,4.6621,4.6597,4.6575,4.6578,4.6537,4.6537,4.6525,4.6525,4.6516,4.6517,4.6495,4.6506,4.6506,4.6506,4.6506,0,4.687,4.6849,4.6823,4.6807,4.6782,4.6763,4.6738,4.6721,4.6697,4.6676,4.666,4.664,4.6612,4.6588,4.657,4.6539,4.6531,4.652,4.6515,4.6521,4.6523,4.651,4.6511,4.6506,4.6506,4.6506,4.6506,0,4.6862,4.6844,4.6815,4.6785,4.6777,4.676,4.6734,4.6716,4.6699,4.6672,4.6665,4.6637,4.6607,4.6583,4.6543,4.6531,4.6499,4.6493,4.6509,4.6507,4.6496,4.6497,4.6465,4.646,4.6475,4.6475,4.6475,0,4.6851,4.6835,4.6805,4.6791,4.6777,4.6754,4.6737,4.6717,4.67,4.6668,4.6654,4.6624,4.6599,4.6552,4.6527,4.6496,4.649,4.6481,4.6485,4.6491,4.6489,4.649,4.6488,4.648,4.648,4.648,4.648,0,4.6834,4.6826,4.6804,4.6779,4.6761,4.674,4.6718,4.6706,4.6682,4.6663,4.6634,4.6615,4.6576,4.6546,4.6513,4.6494,4.6482,4.6479,4.6475,4.648,4.649,4.6484,4.6508,4.648,4.648,4.648,4.648,4.648,4.6824,4.6809,4.6786,4.6762,4.6744,4.6724,4.6707,4.6688,4.6665,4.6634,4.6622,4.6593,4.6565,4.652,4.6501,4.6475,4.6474,4.6467,4.6466,4.6464,4.6465,4.6495,4.6469,4.6469,4.6469,4.6469,4.6469,0,4.6805,4.679,4.6768,4.674,4.6721,4.6714,4.669,4.6673,4.6649,4.6625,4.6602,4.6568,4.6539,4.6512,4.6481,4.6466,4.6459,4.6458,4.6459,4.6454,4.6468,4.6475,4.6464,4.6464,4.6464,4.6464,4.6464,4.6464,4.6793,4.6768,4.6757,4.6722,4.6706,4.668,4.6666,4.6647,4.6628,4.6593,4.657,4.6553,4.6527,4.6494,4.6467,4.6459,4.6448,4.6448,4.6439,4.6452,4.6453,4.6454,4.6461,4.6446,4.6446,4.6427,4.6427,4.6427]}]]